Time_in_sec,Mx,My,Mz
1323444390.64849877,-0.33761787,0.48078755,-0.82547271
1323444390.70053530,-0.33823544,0.48042804,-0.82499462
1323444390.74164128,-0.33570206,0.48103610,-0.82817096
1323444390.80156708,-0.33647951,0.48176536,-0.82809132
1323444390.84933519,-0.33944550,0.48104957,-0.82570189
1323444390.90047717,-0.33753902,0.48175728,-0.82623929
1323444390.94241405,-0.33711404,0.47898218,-0.82594162
1323444391.00057054,-0.33823320,0.48189309,-0.82704222
1323444391.04157519,-0.33747980,0.48066440,-0.82533693
1323444391.10054207,-0.33576420,0.48270714,-0.82678556
1323444391.14155507,-0.33762428,0.48066860,-0.82559955
1323444391.18964410,-0.33790410,0.48139632,-0.82587469
1323444391.24051118,-0.33857131,0.48006153,-0.82411903
1323444391.28964972,-0.33839613,0.48259857,-0.82527351
1323444391.34189200,-0.33932966,0.48018625,-0.82377946
1323444391.40154123,-0.33833334,0.48102427,-0.82436752
1323444391.44852853,-0.33618456,0.48017016,-0.82538986
1323444391.49752355,-0.33822951,0.47884127,-0.82281834
1323444391.54113889,-0.33846334,0.48006427,-0.82449514
1323444391.58851480,-0.33662874,0.48258841,-0.82606804
1323444391.64851880,-0.33846942,0.48282957,-0.82426053
1323444391.68864274,-0.33876953,0.48139796,-0.82515806
1323444391.74216723,-0.33745092,0.47991449,-0.82265604
1323444391.79012418,-0.33769286,0.48222068,-0.82434100
1323444391.84051633,-0.33885381,0.48115033,-0.82439691
1323444391.90050864,-0.33613288,0.48282757,-0.82642460
1323444391.94164538,-0.33721125,0.47967511,-0.82302320
1323444391.98908758,-0.33843648,0.48116410,-0.82615685
1323444392.04202533,-0.33761632,0.48076394,-0.82318044
1323444392.08963346,-0.33722800,0.48270613,-0.82521033
1323444392.14200258,-0.33916011,0.48152256,-0.82518035
1323444392.18850470,-0.33568308,0.48161006,-0.82550001
1323444392.24056172,-0.33787060,0.48100609,-0.82306880
1323444392.29114580,-0.33786657,0.48223042,-0.82511461
1323444392.34165573,-0.33647996,0.48219952,-0.82351047
1323444392.38861179,-0.33726114,0.48244876,-0.82355499
1323444392.44051003,-0.33891428,0.48161924,-0.82313025
1323444392.48853302,-0.33676359,0.48148581,-0.82403028
1323444392.54186702,-0.33822432,0.47833624,-0.82052249
1323444392.58954930,-0.33784679,0.48172262,-0.82256323
1323444392.64055014,-0.33821547,0.48184308,-0.82220227
1323444392.69770789,-0.33645976,0.48339745,-0.82300860
1323444392.74051380,-0.33892831,0.48075733,-0.82121491
1323444392.78953505,-0.33789882,0.48185271,-0.82345831
1323444392.83789253,-0.33694124,0.48123267,-0.82263756
1323444392.88954592,-0.33877504,0.48329854,-0.82275259
1323444392.94172692,-0.34064975,0.48126280,-0.82182199
1323444392.98863053,-0.33875763,0.48389614,-0.82237387
1323444393.04062867,-0.33672369,0.48121455,-0.82109749
1323444393.09254169,-0.33798748,0.48316827,-0.82258123
1323444393.14167023,-0.33573231,0.48448044,-0.82374048
1323444393.18968225,-0.33777916,0.48243082,-0.82129127
1323444393.24051142,-0.33851671,0.48074889,-0.82081032
1323444393.28955841,-0.33960298,0.48413426,-0.82127583
1323444393.33758068,-0.33846468,0.48061880,-0.81991524
1323444393.38883471,-0.33856493,0.48232040,-0.82146078
1323444393.44065166,-0.33926666,0.48267469,-0.82010108
1323444393.48957467,-0.33607715,0.48531741,-0.82287401
1323444393.53763819,-0.33748600,0.48107633,-0.81859159
1323444393.58848977,-0.33869931,0.48292357,-0.82147247
1323444393.63755751,-0.33702147,0.48434928,-0.82139075
1323444393.68851709,-0.33760419,0.48304504,-0.82268673
1323444393.73756552,-0.33834380,0.48182088,-0.81991714
1323444393.78853655,-0.33842123,0.48339796,-0.82107860
1323444393.84057188,-0.33736035,0.48145959,-0.82087940
1323444393.88850045,-0.33809197,0.48172268,-0.82232201
1323444393.94247484,-0.33701393,0.48413083,-0.82355344
1323444393.98857927,-0.33827266,0.48461810,-0.82286179
1323444394.04849720,-0.33785084,0.48049828,-0.82051742
1323444394.08958507,-0.33638817,0.48083672,-0.81980312
1323444394.14230609,-0.33800501,0.48160926,-0.82308042
1323444394.18889451,-0.33722654,0.48172107,-0.82303864
1323444394.24053884,-0.33873257,0.48170480,-0.81993759
1323444394.29106665,-0.33627728,0.48593313,-0.82403529
1323444394.34165764,-0.33839864,0.48135060,-0.82093549
1323444394.38856626,-0.33672079,0.48277631,-0.82085377
1323444394.44051337,-0.33835447,0.48208660,-0.82233894
1323444394.48863435,-0.33744970,0.48267838,-0.82229364
1323444394.54216576,-0.33967116,0.48075891,-0.82061887
1323444394.58887243,-0.33739308,0.48290795,-0.82127351
1323444394.64053845,-0.33747262,0.48184150,-0.82279825
1323444394.68977737,-0.33880651,0.48183906,-0.82121593
1323444394.74163985,-0.33725923,0.48316947,-0.82343268
1323444394.78860712,-0.33841008,0.48269808,-0.82323766
1323444394.84049392,-0.33890361,0.48135352,-0.82070845
1323444394.88925815,-0.33976409,0.48245913,-0.82203674
1323444394.94203758,-0.33846045,0.48376596,-0.82172000
1323444394.98853803,-0.33657718,0.48289245,-0.82059211
1323444395.04164886,-0.33837029,0.48146540,-0.82042539
1323444395.09336495,-0.33560950,0.48640323,-0.82362014
1323444395.14050913,-0.33773714,0.48266318,-0.82052660
1323444395.18924785,-0.33805907,0.48219714,-0.82168692
1323444395.24052787,-0.33933350,0.48088473,-0.82149261
1323444395.28851151,-0.33747700,0.48340467,-0.82268232
1323444395.33790326,-0.33692417,0.48108590,-0.82008892
1323444395.38924980,-0.33780837,0.48243639,-0.82180220
1323444395.44162846,-0.33637843,0.48422322,-0.82148200
1323444395.49261427,-0.33650652,0.48398393,-0.82148731
1323444395.54164815,-0.33903834,0.48474422,-0.82264996
1323444395.58958554,-0.33604795,0.48531184,-0.82236302
1323444395.64853597,-0.33802053,0.48387232,-0.82080537
1323444395.68963671,-0.33876607,0.48209503,-0.82274354
1323444395.74175286,-0.33925384,0.48077270,-0.82237881
1323444395.78850126,-0.33628964,0.48386911,-0.82223862
1323444395.84050131,-0.33946329,0.48184755,-0.82137924
1323444395.88973594,-0.33678484,0.48511857,-0.82622194
1323444395.94152689,-0.33710754,0.48220247,-0.82316285
1323444395.98964715,-0.33836234,0.48295268,-0.82463753
1323444396.04053307,-0.33924538,0.48043388,-0.82454056
1323444396.08863568,-0.33740428,0.48403835,-0.82586616
1323444396.13773346,-0.33906111,0.48272881,-0.82556552
1323444396.18850946,-0.33756712,0.48356533,-0.82650834
1323444396.24051499,-0.33733326,0.48020241,-0.82736295
1323444396.28959870,-0.33923551,0.48264188,-0.82863039
1323444396.34153008,-0.33745235,0.48229146,-0.83145899
1323444396.38863826,-0.33688784,0.48407990,-0.83042216
1323444396.43785119,-0.33773890,0.48215592,-0.82969105
1323444396.48893571,-0.33872378,0.48350224,-0.83090049
1323444396.53756380,-0.33763283,0.48143795,-0.83018947
1323444396.58914614,-0.33777350,0.48288357,-0.83020741
1323444396.64060163,-0.33857030,0.48229453,-0.83062881
1323444396.68960762,-0.33654794,0.48567078,-0.83334351
1323444396.74159694,-0.33766764,0.48024279,-0.83094686
1323444396.78912640,-0.33816385,0.48279113,-0.83252013
1323444396.84053755,-0.33961833,0.48233092,-0.83310574
1323444396.88904548,-0.33623636,0.48361501,-0.83267516
1323444396.93847632,-0.33925503,0.48293260,-0.83347213
1323444396.98850703,-0.33718798,0.48264828,-0.83131969
1323444397.04059577,-0.33819893,0.48181304,-0.83098710
1323444397.09316754,-0.33903626,0.48353845,-0.83410114
1323444397.14050770,-0.33625546,0.48421955,-0.83293515
1323444397.18853378,-0.33861142,0.48194182,-0.83139259
1323444397.24235582,-0.33870658,0.48217699,-0.83076280
1323444397.28855062,-0.33739069,0.48458645,-0.83236325
1323444397.34220600,-0.33962438,0.47942445,-0.83130276
1323444397.38856125,-0.33618802,0.48300493,-0.83190417
1323444397.44153929,-0.33639285,0.48229954,-0.83331102
1323444397.49255013,-0.33501661,0.48541859,-0.83376724
1323444397.54052901,-0.33930111,0.48147589,-0.83219099
1323444397.58912325,-0.33762473,0.48388663,-0.83428109
1323444397.64450431,-0.33725819,0.48326257,-0.83247393
1323444397.68881226,-0.33690593,0.48338559,-0.83309215
1323444397.73816299,-0.33902863,0.48074955,-0.83204359
1323444397.78849840,-0.33815914,0.48197228,-0.83480603
1323444397.84163809,-0.33866829,0.48192933,-0.83012229
1323444397.89004040,-0.33734146,0.48385599,-0.83159137
1323444397.94164920,-0.33708516,0.48315606,-0.83399165
1323444397.98854303,-0.33782631,0.48195553,-0.83351433
1323444398.04051089,-0.33981889,0.48124087,-0.83221763
1323444398.08851886,-0.33718303,0.48375228,-0.83336461
1323444398.14204597,-0.33753002,0.48194572,-0.83286142
1323444398.18850517,-0.33819342,0.48205236,-0.83086115
1323444398.24063039,-0.33836073,0.48218107,-0.83150786
1323444398.29057479,-0.33473650,0.48543519,-0.83566201
1323444398.34063649,-0.33752832,0.48074362,-0.83298010
1323444398.38855696,-0.33837959,0.48256853,-0.83405834
1323444398.43789864,-0.33678883,0.48314625,-0.83333874
1323444398.48904705,-0.33707234,0.48339397,-0.83373803
1323444398.54191661,-0.33904323,0.48075232,-0.83229905
1323444398.58854365,-0.33718672,0.48327228,-0.83348870
1323444398.64053893,-0.33783451,0.48207727,-0.83364302
1323444398.69377398,-0.33689234,0.48254177,-0.83295810
1323444398.74851704,-0.33804810,0.47882646,-0.83324957
1323444398.78906679,-0.33958393,0.47968042,-0.83283037
1323444398.84057760,-0.33758214,0.48111439,-0.83387703
1323444398.88857436,-0.33686557,0.48268017,-0.83474028
1323444398.94177532,-0.33770743,0.48147547,-0.83375913
1323444398.98852563,-0.33707875,0.48327503,-0.83386487
1323444399.04053426,-0.33871737,0.48148128,-0.83330506
1323444399.08799529,-0.33679280,0.48641518,-0.83527219
1323444399.14165068,-0.33727077,0.48280758,-0.83501804
1323444399.18867397,-0.33896121,0.48306677,-0.83511233
1323444399.23762536,-0.33752686,0.48329043,-0.83490813
1323444399.28856349,-0.33811295,0.48439041,-0.83596671
1323444399.33761835,-0.33749607,0.48112133,-0.83463633
1323444399.38851881,-0.33795217,0.48318130,-0.83556730
1323444399.44064093,-0.33735302,0.48210216,-0.83654547
1323444399.48968458,-0.33746099,0.48209941,-0.83616936
1323444399.54162502,-0.33778259,0.48451760,-0.83696818
1323444399.58853269,-0.33770022,0.48404452,-0.83785164
1323444399.63968158,-0.33688018,0.48268294,-0.83499575
1323444399.68908405,-0.33752641,0.48499617,-0.83695757
1323444399.73751950,-0.34028599,0.48068231,-0.83593190
1323444399.78852463,-0.33856028,0.48332402,-0.83712959
1323444399.83750749,-0.33854622,0.48065409,-0.83494514
1323444399.89053750,-0.33815542,0.48598415,-0.83878165
1323444399.94051290,-0.33764943,0.48115054,-0.83731890
1323444399.98898005,-0.33680871,0.48269266,-0.83601058
1323444400.03806973,-0.33853778,0.48031527,-0.83710694
1323444400.08850455,-0.33871028,0.48308894,-0.83751810
1323444400.13755035,-0.33684525,0.48269960,-0.83664930
1323444400.18892741,-0.33853757,0.48223808,-0.83686590
1323444400.24051976,-0.33767787,0.48221424,-0.83541805
1323444400.29279876,-0.33777809,0.48391587,-0.83696365
1323444400.34052992,-0.33703065,0.48427394,-0.83743465
1323444400.38855195,-0.33827206,0.48439738,-0.83648479
1323444400.43772316,-0.33611879,0.48294151,-0.83750260
1323444400.48849726,-0.33708951,0.48257932,-0.83640712
1323444400.54194283,-0.33893052,0.47993624,-0.83496106
1323444400.58875012,-0.33748382,0.48222393,-0.83655351
1323444400.64063001,-0.33742908,0.48173279,-0.83565569
1323444400.69060636,-0.33679456,0.48451596,-0.83780545
1323444400.74212980,-0.33771721,0.48162085,-0.83617997
1323444400.78930974,-0.33666983,0.48148772,-0.83599442
1323444400.84049058,-0.33831015,0.48089612,-0.83531594
1323444400.90206099,-0.33691931,0.48401237,-0.83551669
1323444400.94208527,-0.33813530,0.48268881,-0.83430046
1323444400.98899865,-0.33648050,0.48231623,-0.83484393
1323444401.04049110,-0.33902636,0.48221460,-0.83409119
1323444401.08993483,-0.33666772,0.48413128,-0.83563107
1323444401.14049053,-0.33641973,0.48473155,-0.83574915
1323444401.18849349,-0.33887681,0.48427582,-0.83575302
1323444401.24455833,-0.33754560,0.48110744,-0.83323830
1323444401.28863502,-0.33771911,0.48304003,-0.83377087
1323444401.34193373,-0.33878255,0.48062915,-0.83228391
1323444401.38850498,-0.33861837,0.48268756,-0.83369023
1323444401.44149709,-0.33722785,0.48291957,-0.83425248
1323444401.48990321,-0.33613881,0.48580632,-0.83523208
1323444401.54055500,-0.33813027,0.48122239,-0.83212513
1323444401.58856153,-0.33709615,0.48267743,-0.83424354
1323444401.64057946,-0.33936393,0.48305020,-0.83309698
1323444401.68872666,-0.33567092,0.48314318,-0.83416885
1323444401.73782182,-0.33831117,0.48219496,-0.83290595
1323444401.78873467,-0.33754721,0.48327097,-0.83299911
1323444401.84063339,-0.33631992,0.48132420,-0.83215410
1323444401.88962650,-0.33592519,0.48338535,-0.83405715
1323444401.94169545,-0.33600533,0.48532349,-0.83522135
1323444401.98854232,-0.33718663,0.48423368,-0.83336824
1323444402.04071879,-0.33827657,0.48146728,-0.83238953
1323444402.08865333,-0.33681795,0.48411325,-0.83372921
1323444402.14165282,-0.33818957,0.48135388,-0.83314794
1323444402.18858457,-0.33744740,0.48339546,-0.83350390
1323444402.24051929,-0.34014440,0.48125625,-0.83338153
1323444402.28983426,-0.33651501,0.48400533,-0.83523983
1323444402.33764005,-0.33844635,0.48174000,-0.83532941
1323444402.38912392,-0.33845532,0.48294351,-0.83533847
1323444402.43921518,-0.33741707,0.48305246,-0.83528244
1323444402.48853803,-0.33826938,0.48403633,-0.83648205
1323444402.53756022,-0.33657658,0.48267174,-0.83421504
1323444402.58867908,-0.33701459,0.48328611,-0.83500737
1323444402.64055252,-0.33727413,0.48307189,-0.83731204
1323444402.69022155,-0.33706570,0.48329586,-0.83590162
1323444402.73756123,-0.33806822,0.48212180,-0.83773077
1323444402.78877401,-0.33672535,0.48306063,-0.83677262
1323444402.84455514,-0.33767608,0.48197356,-0.83541626
1323444402.88852525,-0.33674455,0.48270375,-0.83715314
1323444402.93821263,-0.33777314,0.48148799,-0.83490878
1323444403.00048065,-0.33811316,0.48246756,-0.83620769
1323444403.04164600,-0.33799237,0.48270825,-0.83633012
1323444403.09028101,-0.33639207,0.48474962,-0.83753037
1323444403.13766837,-0.33740023,0.48451474,-0.83707458
1323444403.18853927,-0.33861083,0.48246908,-0.83585292
1323444403.23957372,-0.33741179,0.48136896,-0.83539748
1323444403.28856802,-0.33965147,0.48346549,-0.83808160
1323444403.33753657,-0.33851397,0.48103181,-0.83660138
1323444403.38856673,-0.33878556,0.48163781,-0.83674788
1323444403.43766093,-0.33666030,0.48295137,-0.83791429
1323444403.49447441,-0.33696750,0.48344398,-0.83869857
1323444403.53763986,-0.33596295,0.48416027,-0.83915806
1323444403.58904290,-0.33702582,0.48441651,-0.83960003
1323444403.64056993,-0.33704984,0.48177716,-0.84034657
1323444403.68860292,-0.33705086,0.48307601,-0.83793652
1323444403.73769689,-0.33792618,0.48226157,-0.83976132
1323444403.78871107,-0.33733785,0.48262662,-0.84075034
1323444403.84156442,-0.33740145,0.48175085,-0.83743697
1323444403.89008069,-0.33731952,0.48310387,-0.84037077
1323444403.94199991,-0.33891758,0.48252752,-0.84121811
1323444403.98917294,-0.33850992,0.48225614,-0.83864719
1323444404.04853106,-0.33908895,0.48143190,-0.83981901
1323444404.08870292,-0.33803058,0.48177740,-0.83938158
1323444404.14170027,-0.33790144,0.48071784,-0.84178627
1323444404.18909693,-0.33827272,0.48216075,-0.84130752
1323444404.24063778,-0.34126782,0.48027202,-0.84183997
1323444404.28969955,-0.33667251,0.48324072,-0.84262830
1323444404.34153223,-0.33845520,0.48315695,-0.84438056
1323444404.38965869,-0.33717445,0.48362690,-0.84456849
1323444404.44055295,-0.33723512,0.48217300,-0.84354281
1323444404.48884439,-0.33704770,0.48228079,-0.84251469
1323444404.54182959,-0.33948290,0.48182085,-0.84213531
1323444404.60164642,-0.33736300,0.48385653,-0.84330714
1323444404.64163971,-0.33659789,0.48106328,-0.84159005
1323444404.68996549,-0.33661702,0.48519966,-0.84594983
1323444404.74050975,-0.33984593,0.48100212,-0.84405935
1323444404.78953195,-0.33563694,0.48371074,-0.84257495
1323444404.83769345,-0.33966491,0.48099095,-0.84315801
1323444404.88899708,-0.33878836,0.48242939,-0.84350228
1323444404.93771505,-0.33786505,0.47974947,-0.84126806
1323444404.98848128,-0.33823609,0.48311520,-0.84054834
1323444405.04063320,-0.33911726,0.48131713,-0.84032905
1323444405.09217668,-0.33829632,0.48336703,-0.84157205
1323444405.14054775,-0.33683252,0.48336807,-0.84314728
1323444405.18890285,-0.33769527,0.48300862,-0.84242797
1323444405.24051976,-0.33879590,0.48264784,-0.84133959
1323444405.28955674,-0.33640656,0.48357391,-0.84019679
1323444405.33756828,-0.33970550,0.48191348,-0.83921951
1323444405.38851786,-0.33836296,0.48349991,-0.84272265
1323444405.44066334,-0.33794358,0.48166397,-0.84013999
1323444405.48954248,-0.33707681,0.48538768,-0.84037369
1323444405.54056811,-0.33819789,0.48190615,-0.84002829
1323444405.58851767,-0.33692914,0.48105639,-0.84058946
1323444405.65043688,-0.33878309,0.48288575,-0.84108597
1323444405.68851638,-0.33876017,0.48372266,-0.84058130
1323444405.73814464,-0.33734739,0.48116297,-0.83883047
1323444405.78848624,-0.33823711,0.48227414,-0.84066969
1323444405.84048414,-0.33830395,0.48262408,-0.83952987
1323444405.89138079,-0.33743390,0.48298216,-0.84012145
1323444405.94238114,-0.33580190,0.48273408,-0.84104908
1323444405.98950338,-0.33811989,0.48299623,-0.84079576
1323444406.04022646,-0.33904344,0.48022145,-0.83917123
1323444406.08869362,-0.33917376,0.48204896,-0.84122872
1323444406.13752103,-0.33796561,0.48070672,-0.84064370
1323444406.18870425,-0.33742121,0.48225865,-0.83998829
1323444406.23749089,-0.33681512,0.48043379,-0.83866882
1323444406.29024673,-0.33744177,0.48384821,-0.84242004
1323444406.33764744,-0.33710492,0.48152396,-0.83907443
1323444406.38850594,-0.33727762,0.48237479,-0.83972663
1323444406.44052052,-0.33777708,0.48261702,-0.83937365
1323444406.48849702,-0.33821967,0.48287171,-0.84029102
1323444406.53755856,-0.33749896,0.48309138,-0.83897984
1323444406.58907962,-0.33786651,0.48287442,-0.84090835
1323444406.63755703,-0.33678994,0.48273572,-0.84021181
1323444406.69083357,-0.33883914,0.48179150,-0.83993524
1323444406.74153471,-0.33782250,0.48478889,-0.83990091
1323444406.78915977,-0.33793393,0.48408905,-0.84193939
1323444406.83754992,-0.33687523,0.48164704,-0.83957207
1323444406.88870192,-0.33769920,0.48274568,-0.84026164
1323444406.93774629,-0.33947131,0.48143479,-0.83971262
1323444406.98853564,-0.33796719,0.48287028,-0.84040451
1323444407.03758311,-0.33870196,0.48178869,-0.83980036
1323444407.08820105,-0.33760709,0.48565909,-0.84282398
1323444407.14156413,-0.33857554,0.48323008,-0.83967638
1323444407.18853951,-0.33642036,0.48249492,-0.84057188
1323444407.23783731,-0.33900645,0.48192024,-0.84058195
1323444407.28880715,-0.33669287,0.48322126,-0.84071928
1323444407.34183526,-0.33825475,0.48189363,-0.83875799
1323444407.38851929,-0.33770192,0.48310673,-0.84026438
1323444407.44051003,-0.33877027,0.48312369,-0.84083229
1323444407.49083662,-0.33786643,0.48383582,-0.84078789
1323444407.54051638,-0.33833283,0.48337400,-0.84221077
1323444407.58864260,-0.33962718,0.48374790,-0.84215695
1323444407.64852738,-0.33731693,0.48178139,-0.84048855
1323444407.68855739,-0.33777627,0.48153526,-0.83949327
1323444407.73775887,-0.33980539,0.48082757,-0.83883524
1323444407.79734707,-0.33952156,0.48132417,-0.84060591
1323444407.84055185,-0.33746684,0.48250771,-0.84075654
1323444407.88970876,-0.33851016,0.48386517,-0.84298795
1323444407.94062996,-0.33825722,0.48203760,-0.84105116
1323444407.98857832,-0.33839002,0.48047727,-0.84130198
1323444408.04458904,-0.33795360,0.48202643,-0.84027046
1323444408.08853006,-0.33881623,0.48262841,-0.83943063
1323444408.14052987,-0.33757952,0.48118386,-0.84062600
1323444408.18919659,-0.33942884,0.48337290,-0.84099740
1323444408.24051690,-0.34021384,0.48218068,-0.84128654
1323444408.28954792,-0.33821249,0.48190892,-0.84028375
1323444408.34052825,-0.33871993,0.48205578,-0.84234989
1323444408.38852692,-0.33729199,0.48216051,-0.84227252
1323444408.44849539,-0.33971167,0.48157743,-0.84163678
1323444408.48851562,-0.33812529,0.48157841,-0.84333265
1323444408.53751683,-0.33830518,0.47986019,-0.83989227
1323444408.59042072,-0.33697918,0.48286861,-0.84124178
